Location: Cheching
(60.0667°N, 164.2167°W)
Time: 19:23:01
(UTC+00:00)

DX 1 - Pass Details

Date: 26 January 2021
Orbit: 618 x 631 km, 98.5° (Epoch: 26 February)

Event Time Altitude Azimuth Distance (km) Brightness Sun altitude
Rises 14:57:48 0° 121° (ESE) 2,912 ? -32.2°
Reaches altitude 10° 15:00:15 10° 109° (ESE) 2,007 ? -31.9°
Maximum altitude 15:03:51 26° 53° (NE) 1,252 ? -31.5°
Enters shadow 15:05:31 20° 19° (NNE) 1,448 ? -31.3°
